N6CTG Weather Reports


Display with metric or nautical units.
time (UTC)temp
F
wind
direction
speed
MPH
gust
MPH
rain 1hr
in
rain 24hr
in
rain mn
in
humidity
%
barometer
mb
20260506152723 57 0 0.0 0.0 0.00 0.00 0.00 80 1016.6
20260506151802 57 0 0.0 0.0 0.00 0.00 0.00 83 1016.7
20260506150902 56 0 0.0 0.0 0.00 0.00 0.00 87 1016.7
20260506150002 55 0 0.0 0.0 0.00 0.00 0.00 89 1016.8
20260506145402 54 0 0.0 0.0 0.00 0.00 0.00 90 1016.7
20260506144502 53 0 0.0 0.0 0.00 0.00 0.00 89 1016.8
20260506143603 52 0 0.0 0.0 0.00 0.00 0.00 91 1016.7
20260506142702 51 0 0.0 0.0 0.00 0.00 0.00 91 1016.7
20260506141802 50 0 0.0 0.0 0.00 0.00 0.00 91 1016.6
20260506140902 49 0 0.0 0.0 0.00 0.00 0.00 91 1016.6
20260506140023 49 0 0.0 0.0 0.00 0.00 0.00 92 1016.6
20260506135423 48 0 0.0 0.0 0.00 0.00 0.00 92 1016.5
20260506134502 42 0 0.0 0.0 0.00 0.00 0.00 94 1016.5
20260506133602 42 0 0.0 0.0 0.00 0.00 0.00 94 1016.4
20260506132702 42 0 0.0 0.0 0.00 0.00 0.00 94 1016.3
20260506131823 42 0 0.0 0.0 0.00 0.00 0.00 94 1016.2
20260506130902 42 0 0.0 0.0 0.00 0.00 0.00 94 1016.1
20260506130002 42 0 0.0 0.0 0.00 0.00 0.00 94 1016.0
20260506125402 42 0 0.0 0.0 0.00 0.00 0.00 94 1016.0
20260506124502 42 0 0.0 0.0 0.00 0.00 0.00 94 1015.8
20260506123602 42 0 0.0 0.0 0.00 0.00 0.00 94 1015.8
20260506122702 42 0 0.0 0.0 0.00 0.00 0.00 94 1015.8
20260506121802 42 0 0.0 0.0 0.00 0.00 0.00 94 1015.7
20260506120902 42 0 0.0 0.0 0.00 0.00 0.00 94 1015.7
20260506120002 44 0 0.0 0.0 0.00 0.00 0.00 92 1015.7
20260506115402 44 0 0.0 0.0 0.00 0.00 0.00 92 1015.6
20260506114502 44 0 0.0 0.0 0.00 0.00 0.00 92 1015.7
20260506113602 45 0 0.0 0.0 0.00 0.00 0.00 92 1015.7
20260506112702 45 0 0.0 0.0 0.00 0.00 0.00 92 1015.6
20260506111802 45 0 0.0 0.0 0.00 0.00 0.00 92 1015.6
20260506110902 45 0 0.0 0.0 0.00 0.00 0.00 92 1015.5
20260506110002 45 0 0.0 0.0 0.00 0.00 0.00 92 1015.4
20260506105402 45 0 0.0 0.0 0.00 0.00 0.00 92 1015.4
20260506104502 45 0 0.0 0.0 0.00 0.00 0.00 92 1015.4
20260506103602 45 0 0.0 0.0 0.00 0.00 0.00 91 1015.4
20260506102702 46 0 0.0 0.0 0.00 0.00 0.00 91 1015.3
20260506101802 46 0 0.0 0.0 0.00 0.00 0.00 91 1015.3
20260506100902 46 0 0.0 0.0 0.00 0.00 0.00 91 1015.4
20260506100002 46 0 0.0 0.0 0.00 0.00 0.00 91 1015.3
20260506095423 46 0 0.0 0.0 0.00 0.00 0.00 91 1015.3
20260506094502 46 0 0.0 0.0 0.00 0.00 0.00 91 1015.3
20260506093602 47 0 0.0 0.0 0.00 0.00 0.00 91 1015.3
20260506092702 47 0 0.0 0.0 0.00 0.00 0.00 90 1015.3
20260506091802 47 0 0.0 0.0 0.00 0.00 0.00 90 1015.2
20260506090902 47 0 0.0 0.0 0.00 0.00 0.00 90 1015.3
20260506090002 47 0 0.0 0.0 0.00 0.00 0.00 90 1015.4
20260506085402 48 0 0.0 0.0 0.00 0.00 0.00 90 1015.4
20260506084502 48 0 0.0 0.0 0.00 0.00 0.00 89 1015.6
20260506083602 48 0 0.0 0.0 0.00 0.00 0.00 89 1015.7
20260506082702 48 0 0.0 0.0 0.00 0.00 0.00 89 1015.7
20260506081802 49 0 0.0 0.0 0.00 0.00 0.00 88 1015.8
20260506080902 49 0 0.0 0.0 0.00 0.00 0.00 88 1015.9
20260506072702 51 0 0.0 0.0 0.00 0.00 0.00 86 1016.1
20260506071824 51 0 0.0 0.0 0.00 0.00 0.00 85 1016.1
20260506070902 52 0 0.0 0.0 0.00 0.00 0.00 84 1016.1
20260506061804 53 0 0.0 0.0 0.00 0.00 0.00 82 1015.8
20260506060902 54 0 0.0 0.0 0.00 0.00 0.00 82 1015.7
20260506050902 54 0 0.0 0.0 0.00 0.00 0.00 81 1015.6
20260506044525 54 0 0.0 0.0 0.00 0.00 0.00 80 1015.4
20260506043602 54 0 0.0 0.0 0.00 0.00 0.00 80 1015.1
20260506042702 54 0 0.0 0.0 0.00 0.00 0.00 80 1015.1
20260506041823 54 0 0.0 0.0 0.00 0.00 0.00 79 1015.0
20260506040902 54 225 0.0 3.0 0.00 0.00 0.00 79 1014.9
20260506040002 54 230 1.0 4.0 0.00 0.00 0.00 78 1014.8
20260506035402 54 253 0.0 3.0 0.00 0.00 0.00 78 1014.7
20260506034502 54 245 1.0 3.0 0.00 0.00 0.00 78 1014.5
20260506033602 54 241 0.0 2.0 0.00 0.00 0.00 78 1014.3
20260506032724 54 244 0.0 3.0 0.00 0.00 0.00 78 1014.2
20260506031823 54 0 0.0 0.0 0.00 0.00 0.00 79 1014.1
20260506030902 54 0 0.0 0.0 0.00 0.00 0.00 78 1014.0
20260506030002 54 0 0.0 0.0 0.00 0.00 0.00 78 1013.9
20260506025402 54 243 0.0 1.0 0.00 0.00 0.00 77 1013.9
20260506024502 55 245 1.0 4.0 0.00 0.00 0.00 76 1013.7
20260506023602 55 243 2.0 5.0 0.00 0.00 0.00 75 1013.6
20260506022723 56 242 2.0 5.0 0.00 0.00 0.00 73 1013.5
20260506021802 56 240 4.0 7.0 0.00 0.00 0.00 72 1013.3
20260506020903 57 241 4.0 8.0 0.00 0.00 0.00 69 1013.2
20260506020002 58 238 4.0 8.0 0.00 0.00 0.00 68 1013.1
20260506015402 58 243 4.0 9.0 0.00 0.00 0.00 67 1013.1
20260506014502 59 244 3.0 7.0 0.00 0.00 0.00 67 1012.9
20260506013602 59 238 6.0 12.0 0.00 0.00 0.00 66 1012.9
20260506012702 59 242 6.0 10.0 0.00 0.00 0.00 66 1012.7
20260506011803 60 239 6.0 11.0 0.00 0.00 0.00 64 1012.8
20260506010902 60 238 5.0 11.0 0.00 0.00 0.00 65 1012.8
20260506010002 60 240 7.0 12.0 0.00 0.00 0.00 64 1012.8
20260506005402 60 241 6.0 12.0 0.00 0.00 0.00 64 1012.7
20260506004502 61 237 7.0 12.0 0.00 0.00 0.00 62 1012.6
20260506003602 61 244 5.0 11.0 0.00 0.00 0.00 61 1012.5
20260506002702 62 241 6.0 12.0 0.00 0.00 0.00 57 1012.5
20260506001802 62 238 5.0 12.0 0.00 0.00 0.00 56 1012.4
20260506000902 62 241 5.0 12.0 0.00 0.00 0.00 58 1012.4
20260506000002 62 241 5.0 13.0 0.00 0.00 0.00 54 1012.4
20260505235402 62 242 6.0 13.0 0.00 0.00 0.00 55 1012.4
20260505234503 62 241 6.0 11.0 0.00 0.00 0.00 57 1012.4
20260505233602 63 240 7.0 13.0 0.00 0.00 0.00 55 1012.5
20260505232723 62 242 6.0 12.0 0.00 0.00 0.00 53 1012.3
20260505231802 62 238 6.0 12.0 0.00 0.00 0.00 54 1012.4
20260505230902 62 244 7.0 12.0 0.00 0.00 0.00 53 1012.4
20260505230002 62 240 6.0 13.0 0.00 0.00 0.00 55 1012.4
20260505225403 62 244 6.0 12.0 0.00 0.00 0.00 57 1012.5
20260505224502 62 240 8.0 13.0 0.00 0.00 0.00 53 1012.6
20260505223602 63 235 7.0 13.0 0.00 0.00 0.00 52 1012.6
20260505222723 63 238 6.0 10.0 0.00 0.00 0.00 53 1012.5
20260505221802 63 232 7.0 12.0 0.00 0.00 0.00 55 1012.6
20260505220902 62 241 7.0 13.0 0.00 0.00 0.00 52 1012.6
20260505220002 62 238 7.0 14.0 0.00 0.00 0.00 54 1012.8
20260505215402 62 246 5.0 11.0 0.00 0.00 0.00 57 1012.7
20260505214503 62 234 8.0 14.0 0.00 0.00 0.00 56 1012.8
20260505213602 62 234 8.0 13.0 0.00 0.00 0.00 56 1012.8
20260505212702 63 235 6.0 12.0 0.00 0.00 0.00 59 1012.8
20260505211802 62 234 7.0 15.0 0.00 0.00 0.00 57 1012.9
20260505210902 62 232 8.0 16.0 0.00 0.00 0.00 58 1013.0
20260505210024 62 239 7.0 13.0 0.00 0.00 0.00 56 1013.1
20260505205402 62 240 6.0 12.0 0.00 0.00 0.00 56 1013.1
20260505204502 62 246 4.0 10.0 0.00 0.00 0.00 57 1013.0
20260505203602 62 241 7.0 13.0 0.00 0.00 0.00 60 1013.2
20260505202702 62 236 7.0 14.0 0.00 0.00 0.00 56 1013.1
20260505201823 62 232 6.0 13.0 0.00 0.00 0.00 59 1013.2
20260505200902 61 232 7.0 12.0 0.00 0.00 0.00 60 1013.2
20260505200002 61 242 5.0 11.0 0.00 0.00 0.00 60 1013.3
20260505195403 60 234 6.0 11.0 0.00 0.00 0.00 60 1013.3
20260505194523 60 232 5.0 11.0 0.00 0.00 0.00 65 1013.4
20260505193602 60 239 4.0 9.0 0.00 0.00 0.00 63 1013.5
20260505192702 59 232 5.0 8.0 0.00 0.00 0.00 62 1013.5
20260505191802 58 239 6.0 10.0 0.00 0.00 0.00 68 1013.7
20260505190902 57 241 5.0 9.0 0.00 0.00 0.00 74 1013.7
20260505190002 57 230 5.0 9.0 0.00 0.00 0.00 76 1013.7
20260505185424 57 233 5.0 10.0 0.00 0.00 0.00 74 1013.6
20260505184502 57 240 4.0 11.0 0.00 0.00 0.00 76 1013.6
20260505183602 56 234 5.0 9.0 0.00 0.00 0.00 77 1013.6
20260505182703 56 244 5.0 9.0 0.00 0.00 0.00 81 1013.7
20260505181802 55 243 4.0 10.0 0.00 0.00 0.00 84 1013.6
20260505180902 55 246 2.0 7.0 0.00 0.00 0.00 85 1013.6
20260505180002 55 253 1.0 5.0 0.00 0.00 0.00 86 1013.6
20260505175423 54 248 3.0 7.0 0.00 0.00 0.00 86 1013.6
20260505174502 54 235 3.0 11.0 0.00 0.00 0.00 85 1013.4
20260505173605 55 257 0.0 3.0 0.00 0.00 0.00 84 1013.2
20260505172702 55 236 2.0 6.0 0.00 0.00 0.00 84 1013.2
20260505171802 55 250 1.0 5.0 0.00 0.00 0.00 86 1013.0
20260505170902 54 245 2.0 6.0 0.00 0.00 0.00 86 1013.0
20260505170023 54 255 1.0 5.0 0.00 0.00 0.00 87 1013.0
20260505165403 53 256 3.0 8.0 0.00 0.00 0.00 86 1013.0
20260505164502 54 247 3.0 8.0 0.00 0.00 0.00 87 1012.9
20260505163623 53 240 3.0 7.0 0.00 0.00 0.00 88 1012.9
20260505162702 54 241 5.0 9.0 0.00 0.00 0.00 88 1012.8
20260505161823 54 243 3.0 9.0 0.00 0.00 0.00 89 1012.6
20260505160902 54 250 1.0 5.0 0.00 0.00 0.00 90 1012.5